C/2016 U1 ( NEOWISE )

Japanese version
Home page
Updated on January 8, 2017

---------------------------------------------------------------------

* Profile

Discovery Date October 21, 2016
Magnitude 19 mag
Discoverer Near-Earth Object Wide-field Infrared Survey Explorer

* Pictures

* Orbital Elements

Epoch 2017 Jan. 7.0 TT = JDT 2457760.5
T 2017 Jan. 14.01695 TT                                 MPCW
q   0.3191536            (2000.0)            P               Q
z  -0.0007156      Peri.  162.75152     -0.63623366     +0.43621793
 +/-0.0000334      Node    61.42719     -0.76529507     -0.25247828
e   1.0002284      Incl.   46.43395     -0.09762262     -0.86369476
From 225 observations 2016 Oct. 27-2017 Jan. 2, mean residual 0".6.

* Finding Charts

* Magnitudes Graph

        m1 = 10.0 + 5 log d + 30.0 log r  [   ,-43]  (             - 2016 Dec.  2)
        m1 = 11.0 + 5 log d + 10.0 log r  [-43,   ]  (2016 Dec.  2 -             )

---------------------------------------------------------------------

The orbital elements are published on M.P.E.C. 2017-A35.
The charts are made with StellaNavigator Ver.10 (AstroArts).
The magnitudes graphs are made with Comet for Windows.

---------------------------------------------------------------------

Copyright(C) Seiichi Yoshida (comet@aerith.net). All rights reserved.